Tracking 19575 objects as of 18-Feb-2019
HD Live streaming from Space Station
objects crossing your sky now

GLOBALSTAR M078

Track GLOBALSTAR M078 now!
10-day predictions
GLOBALSTAR M078 is classified as:


NORAD ID: 39076
Int'l Code: 2013-005E
Perigee: 1,419.4 km
Apogee: 1,423.5 km
Inclination: 52.0 °
Period: 114.1 minutes
Semi major axis: 7792 km
RCS: 4.7444 m2 (large)
Launch date: February 6, 2013
Source: Globalstar (GLOB)
Launch site: TYURATAM MISSILE AND SPACE COMPLEX (TTMTR)

GLOBALSTAR M078 is part of Globalstar's second-generation satellite fleet, which began launching in 2010.
aabbcc
Your satellite tracking list
Your tracking list is empty




NASA's NSSDC Master Catalog

Two Line Element Set (TLE):
1 39076U 13005E   19048.76952355 -.00000167 +00000-0 -35129-3 0  9997
2 39076 051.9873 153.9951 0002625 106.4945 253.6210 12.62092724278222
Source of the keplerian elements: AFSPC